Starlink 32757

operational
NORAD ID: 62492 Int'l Des: 2025-003 Owner: SPXS Country: US Constellation: starlink
LEOCIRCULAR

关于 Starlink 32757

正在加载描述...

实时位置

正在加载3D地球...

即将过境

高度历史

Altitude vs Time

uPlot chart will show altitude changes over time

两行轨道根数

1 62492U 25003F 25347.60454938 .00027199 00000-0 99299-3 0 9992
2 62492 43.0002 55.3312 0003093 249.4527 110.5993 15.27619122 53384
Epoch: Dec 13, 2025 • Age: 15 hours

当前状态

高度 484.3 km
速度 7.62 km/s
星下点 -14.68°S, 82.21°E
发射日期 Jan 6, 2025
运行时间 0.9 years
类型 internet

技术详情

分类 Payload
质量 730.00 kg
干质量 700.00 kg
总质量 730.00 kg
长度 0.30 m
直径 4.10 m
跨度 29.00 m
形状 Box + pan
制造商 SPXS
平台类型 Starlink V2M
阶段状态 In Orbit
所有者/国家 SPXS/US

大型星座

Loading constellations...